[[{"header":{"parameterUnit":"m.s-1","parameterCategory":1,"la1":30.2991,"la2":30.254,"lo1":-89.0895,"lo2":-89.0444,"dy":0.0017,"dx":0.0017,"nx":28,"ny":28,"refTime":"2025-11-13T09:00:00:Z","depth":0,"parameterNumber":2,"parameterNumberName":"U-component_of_WINDS"},"data":[0,0,0,0,0,0,0,0,0,0,0,0,0,0,0,0,0,0,0,0,0,0,0,0,0,0,0,0,0,0,0,0,0,0,0,0,0,0,0,0,0,0,0,0,0,0,0,0,0,0,0,0,0,0,0,0,0,0,0.3312,0.3312,0,0.3355,0.3356,0.3356,0.3361,0.336,0.336,0.3359,0.3404,0.3405,0.3407,0,0,0,0,0,0,0,0,0,0,0,0,0,0.3231,0.3233,0.3312,0.3312,0.3313,0.3355,0.3356,0.3357,0.3361,0.336,0.336,0.3359,0.3403,0.3405,0.3407,0,0,0,0,0,0,0,0,0,0,0,0,0,0.327,0.3233,0.3312,0.332,0.3321,0.3355,0.3356,0.3357,0.3361,0.336,0.336,0.3359,0.3403,0.3405,0.3407,0.3435,0,0,0.3415,0.3416,0,0,0,0,0,0,0,0,0.3268,0.3273,0.3318,0.332,0.3321,0.3352,0.3344,0.3383,0.3361,0.3346,0.3359,0.3359,0.3387,0.3391,0.34,0.3438,0.3439,0.3415,0.3416,0.3417,0.3418,0,0,0,0,0,0,0,0.3265,0.3271,0.3329,0.3319,0.3321,0.3321,0.3326,0.3351,0.337,0.3347,0.3348,0.3353,0.3388,0.3398,0.3401,0.344,0.3415,0.3417,0.3418,0.3419,0.3502,0.3503,0,0,0,0,0,0,0.3261,0.3269,0.3328,0.333,0.3292,0.3323,0.3329,0.3343,0.3369,0.3373,0.3353,0.3353,0.3394,0.3399,0.3403,0.3437,0.3417,0.3419,0.3421,0.3501,0.3502,0.3503,0,0,0,0,0,0,0.3259,0.3266,0.3326,0.33,0.3307,0.3326,0.3341,0.3344,0.3354,0.3374,0.3377,0.3361,0.3394,0.34,0.3427,0.3439,0.3421,0.3423,0.35,0.3501,0.3502,0.3506,0,0,0,0,0,0,0.3257,0.3265,0.3277,0.33,0.3309,0.335,0.3342,0.3345,0.3358,0.3358,0.3382,0.3385,0.3394,0.3424,0.343,0.3442,0.3425,0.3499,0.3501,0.3502,0.3505,0.3507,0.3509,0,0,0,0,0,0.3254,0.3276,0.3277,0.3284,0.3323,0.335,0.3355,0.3365,0.3359,0.3371,0.3383,0.3384,0.3437,0.3426,0.3433,0.3446,0.3498,0.35,0.3502,0.3504,0.3507,0.3509,0,0,0,0,0,0,0.3254,0.3279,0.3281,0.3311,0.3329,0.3351,0.3366,0.3368,0.3387,0.3386,0.3397,0.3403,0.343,0.3441,0.3429,0.3474,0.3467,0.347,0.3466,0.3469,0.3471,0.3468,0.3427,0,0,0,0,0,0.3257,0.3277,0.3299,0.3323,0.3332,0.3347,0.336,0.3366,0.3384,0.3391,0.3406,0.3424,0.3444,0.3457,0.3477,0.3507,0.3512,0.3519,0.3521,0.3523,0.3525,0.3541,0.3544,0.3508,0.3508,0.3508,0,0,0.3265,0.3281,0.3293,0.3324,0.3338,0.3358,0.3354,0.3375,0.339,0.3395,0.3421,0.3433,0.3453,0.3482,0.3495,0.3492,0.3536,0.3525,0.3526,0.3528,0.3543,0.3546,0.3549,0.351,0.3509,0.3509,0,0,0.3288,0.3303,0.3325,0.3339,0.3361,0.3371,0.3376,0.3398,0.3406,0.3433,0.3436,0.3454,0.3489,0.3503,0.3515,0.3543,0.3545,0.355,0.356,0.3575,0.3578,0.3581,0.359,0.3594,0.3552,0.3552,0.3552,0,0.3295,0.3326,0.3336,0.3358,0.3371,0.3375,0.3397,0.3411,0.3437,0.3446,0.3442,0.3486,0.35,0.3531,0.3538,0.3548,0.3554,0.3547,0.3577,0.358,0.3582,0.3591,0.3595,0.3552,0.3552,0.3552,0.3552,0,0.3333,0.3354,0.3369,0.3395,0.341,0.3431,0.3444,0.3458,0.3462,0.3472,0.35,0.3517,0.354,0.3548,0.3552,0.358,0.3577,0.3575,0.3567,0.3586,0.3595,0.3598,0.3553,0.3553,0.3553,0.3553,0,0,0.3358,0.3389,0.3394,0.3405,0.3429,0.3446,0.3467,0.349,0.3501,0.3519,0.3537,0.3566,0.3564,0.3577,0.3584,0.3597,0.3618,0.3593,0.3594,0.3597,0.3648,0.3649,0.3653,0.3619,0.362,0.362,0.3646,0,0.3384,0.3423,0.3432,0.3465,0.3485,0.3489,0.3508,0.3524,0.3534,0.3552,0.3563,0.3583,0.3579,0.3587,0.36,0.3612,0.3628,0.3611,0.3635,0.3636,0.363,0.3658,0.3659,0.3683,0.365,0.365,0.3651,0,0.342,0.3439,0.3474,0.3494,0.3503,0.352,0.354,0.3558,0.3576,0.3582,0.3596,0.3601,0.3623,0.3615,0.3645,0.3633,0.3643,0.3651,0.3652,0.3654,0.3644,0.3661,0.3691,0.3694,0.3657,0.3656,0.3656,0,0.3434,0.3468,0.3493,0.3503,0.3528,0.3539,0.355,0.3568,0.358,0.3599,0.3607,0.3627,0.3639,0.3654,0.3664,0.3657,0.3693,0.3686,0.3699,0.3698,0.3706,0.3705,0.3738,0.3713,0.3713,0.3713,0.3713,0,0.3462,0.3483,0.35,0.3515,0.3539,0.3549,0.3572,0.3583,0.3598,0.3616,0.3621,0.3637,0.3649,0.3667,0.3674,0.3698,0.3703,0.3708,0.371,0.3708,0.3707,0.3715,0.3713,0.3714,0.3714,0.3714,0.3714,0,0.3482,0.3494,0.3522,0.3543,0.3548,0.3565,0.3583,0.3597,0.3607,0.3629,0.3635,0.365,0.3671,0.3682,0.3708,0.3714,0.374,0.3741,0.3733,0.3734,0.3746,0.3745,0.3785,0.379,0.3762,0.3762,0.3763,0,0.3499,0.3515,0.3538,0.355,0.3561,0.358,0.3593,0.3603,0.3617,0.3638,0.365,0.3671,0.3689,0.3722,0.3735,0.3755,0.3756,0.3769,0.3759,0.3756,0.3756,0.3755,0.3756,0.377,0.3771,0.3771,0.3771,0,0.3527,0.3532,0.3551,0.3571,0.3587,0.3603,0.362,0.3629,0.3642,0.3657,0.3678,0.3692,0.3718,0.3739,0.3759,0.377,0.3773,0.3774,0.3778,0.3775,0.377,0.3773,0.3737,0.3773,0.3773,0.3773,0.3773,0.3772,0.3546,0.356,0.3578,0.3599,0.3612,0.3627,0.3642,0.3653,0.3672,0.3694,0.3699,0.3721,0.3739,0.3767,0.3778,0.3795,0.3793,0.3799,0.38,0.3801,0.3801,0.3768,0.3799,0.3799,0.3799,0.3799,0.3799,0,0.3574,0.3586,0.3604,0.3627,0.3643,0.3644,0.3662,0.3675,0.3695,0.3711,0.3728,0.3752,0.3772,0.3786,0.3806,0.3817,0.3819,0.3822,0.3821,0.3824,0.3803,0.3797,0.3821,0.3821,0.3821,0.3821,0.3821,0.3821,0.3591,0.3615,0.3622,0.3653,0.3664,0.3686,0.3696,0.371,0.3723,0.3749,0.3766,0.3775,0.3791,0.3812,0.383,0.3834,0.3841,0.3844,0.3848,0.3828,0.3825,0.3823,0.3818,0.3845,0.3845,0.3867,0.3867,0.3867]},{"header":{"parameterUnit":"m.s-1","parameterCategory":1,"la1":30.2991,"la2":30.254,"lo1":-89.0895,"lo2":-89.0444,"dy":0.0017,"dx":0.0017,"nx":28,"ny":28,"refTime":"2025-11-13T09:00:00:Z","depth":0,"parameterNumber":3,"parameterNumberName":"V-component_of_WINDS"},"data":[0,0,0,0,0,0,0,0,0,0,0,0,0,0,0,0,0,0,0,0,0,0,0,0,0,0,0,0,0,0,0,0,0,0,0,0,0,0,0,0,0,0,0,0,0,0,0,0,0,0,0,0,0,0,0,0,0,0,1.0127,1.0126,0,1.0093,1.0092,1.0092,1.0046,1.0045,1.0044,1.0044,1.0008,1.0008,1.0007,0,0,0,0,0,0,0,0,0,0,0,0,0,1.0151,1.0151,1.0127,1.0126,1.0126,1.0093,1.0092,1.0092,1.0046,1.0045,1.0044,1.0043,1.0008,1.0008,1.0007,0,0,0,0,0,0,0,0,0,0,0,0,0,1.0131,1.0151,1.0127,1.0099,1.0096,1.0093,1.0092,1.0092,1.0046,1.0045,1.0044,1.0043,1.0008,1.0008,1.0007,1.0028,0,0,1.0006,1.0006,0,0,0,0,0,0,0,0,1.0132,1.013,1.0104,1.0101,1.0098,1.0072,1.0088,1.007,1.0047,1.0065,1.0044,1.0042,1.003,1.0028,1.0024,1.0026,1.0025,1.0006,1.0006,1.0006,1.0006,0,0,0,0,0,0,0,1.0134,1.0131,1.0113,1.0103,1.01,1.0088,1.0084,1.0084,1.0055,1.0064,1.006,1.0057,1.0028,1.0025,1.0023,1.0024,1.0006,1.0006,1.0006,1.0006,1.0042,1.0043,0,0,0,0,0,0,1.0139,1.0133,1.0114,1.0112,1.0113,1.0089,1.0084,1.0082,1.0054,1.0049,1.0058,1.0055,1.0026,1.0023,1.0021,1.0044,1.0006,1.0005,1.0005,1.004,1.0042,1.0043,0,0,0,0,0,0,1.014,1.0138,1.0116,1.0122,1.0118,1.0089,1.0087,1.0082,1.0078,1.005,1.0044,1.0059,1.0025,1.0022,1.0027,1.0042,1.0005,1.0005,1.0039,1.0041,1.0043,1.0089,0,0,0,0,0,0,1.0141,1.0139,1.0147,1.0122,1.0118,1.0122,1.0088,1.0082,1.0077,1.0073,1.005,1.0045,1.0024,1.0028,1.0026,1.0041,1.0005,1.0038,1.004,1.0042,1.0086,1.0093,1.0098,0,0,0,0,0,1.0142,1.0161,1.0147,1.0145,1.0127,1.0123,1.012,1.0096,1.0079,1.0086,1.0068,1.0046,1.0041,1.0028,1.0027,1.0041,1.0037,1.0039,1.0042,1.0084,1.0091,1.0098,0,0,0,0,0,0,1.0187,1.0157,1.0142,1.0153,1.0141,1.0115,1.0124,1.0104,1.0097,1.0093,1.0062,1.0057,1.0066,1.0054,1.0041,1.006,1.0035,1.0038,1.0068,1.0075,1.008,1.0083,1.0004,0,0,0,0,0,1.0199,1.0199,1.0172,1.0185,1.0179,1.0153,1.015,1.0132,1.0118,1.0113,1.0095,1.0082,1.0078,1.0075,1.0069,1.0084,1.0079,1.0093,1.0099,1.0104,1.0107,1.0114,1.012,1.0052,1.0052,1.0052,0,0,1.0222,1.0206,1.0207,1.0193,1.0182,1.0182,1.0149,1.015,1.015,1.0113,1.0117,1.0103,1.0087,1.0097,1.01,1.0087,1.0124,1.0107,1.0111,1.0111,1.0117,1.0123,1.0129,1.0054,1.0053,1.0053,0,0,1.0266,1.0253,1.0262,1.0251,1.0234,1.0217,1.0219,1.0196,1.0186,1.0189,1.0161,1.016,1.0153,1.0142,1.0136,1.0175,1.0154,1.0174,1.0204,1.0211,1.0217,1.0221,1.0236,1.0241,1.0177,1.0177,1.0177,0,1.0297,1.0296,1.0269,1.0273,1.0267,1.0234,1.0243,1.0234,1.0216,1.0213,1.0198,1.0188,1.0175,1.0182,1.0192,1.0187,1.0189,1.0177,1.0218,1.0223,1.0226,1.024,1.0245,1.0179,1.0179,1.0179,1.0178,0,1.0336,1.0336,1.0345,1.0329,1.0325,1.0331,1.0305,1.0304,1.0286,1.027,1.0273,1.0256,1.0246,1.0246,1.0229,1.0251,1.0243,1.0224,1.0199,1.0236,1.0248,1.0253,1.0183,1.0182,1.0181,1.0181,0,0,1.0407,1.0376,1.038,1.0373,1.0351,1.0351,1.0355,1.0346,1.0346,1.0334,1.0337,1.0332,1.0314,1.0307,1.0287,1.0294,1.0326,1.0273,1.0273,1.0284,1.035,1.0365,1.0371,1.0312,1.0313,1.0313,1.0351,0,1.0447,1.0453,1.0429,1.0442,1.0442,1.041,1.0414,1.0401,1.0386,1.0383,1.0366,1.0363,1.0339,1.0334,1.0339,1.0321,1.0339,1.0318,1.0314,1.0315,1.032,1.0378,1.0394,1.043,1.0356,1.0357,1.0357,0,1.0494,1.0485,1.0498,1.0477,1.0475,1.048,1.0469,1.0467,1.0452,1.044,1.0432,1.041,1.0413,1.0388,1.0391,1.0378,1.0374,1.0365,1.0366,1.0365,1.0339,1.0379,1.0442,1.0447,1.0364,1.0364,1.0363,0,1.0545,1.0537,1.0544,1.0538,1.0513,1.0516,1.0506,1.0489,1.0485,1.0476,1.0473,1.0464,1.0459,1.0453,1.0429,1.0413,1.0435,1.0408,1.0425,1.0426,1.0432,1.0432,1.0496,1.0429,1.0429,1.0429,1.0429,0,1.0592,1.0602,1.0566,1.0571,1.058,1.0552,1.0562,1.0548,1.0534,1.0535,1.0506,1.0507,1.0475,1.0473,1.0453,1.0459,1.0457,1.0448,1.0443,1.0451,1.0452,1.0449,1.0446,1.043,1.043,1.043,1.0429,0,1.0652,1.0628,1.0634,1.0609,1.0603,1.0611,1.059,1.0593,1.0576,1.0577,1.0576,1.0549,1.0545,1.052,1.0509,1.0497,1.0509,1.0499,1.0515,1.0512,1.053,1.0529,1.0595,1.0602,1.053,1.0531,1.0532,0,1.0684,1.069,1.0666,1.0665,1.0656,1.0654,1.065,1.0622,1.0619,1.0602,1.0607,1.06,1.0594,1.0588,1.0567,1.0559,1.0549,1.0572,1.0547,1.0555,1.055,1.055,1.0551,1.0578,1.0579,1.058,1.058,0,1.0743,1.0731,1.0726,1.0718,1.0714,1.0706,1.0696,1.0696,1.0665,1.0663,1.0659,1.0653,1.0643,1.0637,1.0625,1.0614,1.0592,1.0588,1.0592,1.06,1.061,1.0605,1.053,1.0587,1.0586,1.0586,1.0585,1.0585,1.079,1.0794,1.0778,1.0774,1.0764,1.0755,1.0757,1.074,1.0736,1.0725,1.0709,1.0707,1.0691,1.0673,1.0664,1.0661,1.0649,1.0654,1.0655,1.0657,1.0662,1.061,1.0659,1.0659,1.0658,1.0658,1.0658,0,1.0848,1.0836,1.0833,1.082,1.0816,1.0796,1.0784,1.0783,1.0781,1.0768,1.0763,1.0757,1.0751,1.073,1.0721,1.0724,1.0713,1.0722,1.0722,1.072,1.0673,1.0671,1.0731,1.0731,1.0731,1.0731,1.0731,1.0731,1.0878,1.0885,1.0871,1.0872,1.086,1.0858,1.0853,1.0844,1.0834,1.083,1.0825,1.0811,1.0795,1.0785,1.0778,1.0772,1.0771,1.0783,1.0774,1.073,1.0723,1.0717,1.0715,1.0783,1.0783,1.0821,1.0821,1.0822]}]]